User: anonymous
Location: Caltech
(34.1382°N, 118.1253°W)
Time: 19:40:18
(UTC-07:00)
Language:

SL-16 R/B - Orbit

View from above orbital plane
View from above orbital plane
View from above satellite
View from above satellite

Ground track
Ground track

The orbit data is extracted from the following two-line orbital elements,

1 31793U 07029B   14112.82104714  .00000249  00000-0  15564-3 0  9569
2 31793 070.9766 287.4038 0001702 280.5314 175.7052 14.14268215351926
Epoch (UTC): 22 April 2014 19:42:18
Eccentricity: 0.0001702
inclination: 70.9766°
perigee height: 843 km
apogee height: 846 km
right ascension of ascending node: 287.4038°
argument of perigee: 280.5314°
revolutions per day: 14.14268215
mean anomaly at epoch: 175.7052°
orbit number at epoch: 35192

The dashed part of the orbit path shows where the satellite is in the earth's shadow,  

DLR